STARLINK-34993, 65389

Orbit data source: Space-Track

STARLINK-34993, 65389 is a payload satellite owned by SpaceX/Seattle (US) in SSO that was launched on Sat, 30 Aug 2025 UTC via an FALCON 9 launch vehicle from the Air Force Western Test Range (AFWTR). Payload-class satellites include a variety of spacecraft equipped with specific instruments for various scientific and technological missions. These include communications satellites like Starlink; space stations such as the ISS; scientific satellites like the Hubble; Earth observation satellites from companies like Planet Labs, Umbra, and HawkEye 360; GPS; miniature CubeSats for education and research; and military/defense satellites.

Loading next visibility...
Identifier
65389, 2025-191L
Orbit
SSO
Country
Flag of USUS
Related business
Manufacturer
SpaceX/Seattle
Mission
Operational Commercial Communications
Bus & Motor
STARLINK V2MO, Unknown motor
Mass
575 kg wet, ~530 kg dry
Launch date (UTC)
2025-08-30 (7 months ago)
Launch vehicle
FALCON 9
Launch site
Air Force Western Test Range (AFWTR)
Object type
Payload
Rocket body
Debris
Shape & HBR
Box + 2 Pan, 17.7 m
Radar Cross Section
36.964 m², Large (>1 m²)

Expand to show TLE details & history
Last TLE update: 11 hours ago

TLE from 11 hours ago
0 STARLINK-34993
1 65389U 25191L   26093.92167033  .00007329  00000-0  51140-3 0  9995
2 65389  97.6041 326.3549 0002391  70.9321 289.2165 15.05667030 34068
Epoch: 2026-04-03T22:07Z
TLE epoch observation values (Epoch: 2026-04-03T22:07:12.316Z)
Latitude
0.00002°
Longitude
162.30472°
Altitude
551.979 km
Speed
7.586 km/s
True Right ascension
21h 45m 25s
True Declination
0° 00' 00"
Sunlit
Object was in daylight at epoch
Visualization orbit readout
Latitude
Unknown
Longitude
Unknown
Altitude
Unknown
Speed
Unknown
Apparent Right ascension
Unknown
Apparent Declination
Unknown
Sunlit
N/A
Visualization observer readout
Local Sidereal Time
15:00:37
Azimuth
Unknown
Elevation
Unknown
Doppler factor
Unknown
Orbital elements
Apogee altitude
548.108 km
Perigee altitude
544.797 km
Semi-major axis
6,924.589 km
Eccentricity
0.00024
Inclination
97.6041°
RAAN
326.3549°
Arg. of periapsis
70.9321°
True anomaly
289.19063°
Mean anomaly
289.2165°
Eccentric anomaly
289.20356°
Mean motion
3.76662 °/min
Orbital period
95.58 mins
BSTAR
0.0005114
Loading maneuver chart data...
Computing Atmospheric mass density...
Loading historical data...
Loading historical data...
Loading historical data...
Loading historical data...
Loading historical data...
Loading historical data...
Loading historical data...

Documentation

Showing up to 5 results
|